Ihor Pikhalyonok

Scout - Metalist
22 Feb 2028
Dienstag
Verarbeitung

Persönlichkeit

Anpassungsfähigkeit (3) Ehrgeiz (13) Kontroverse (19) Loyalität (14) Druck (1) Professionalität (1) Fairness (13) Temperament (8)

Profil

Trainerstil Demokratisch
Lizenz Kontinentale C
Entschlossenheit 8
Menschenführung 10
Motivation 8
Disziplin 9
Arbeitszufriedenheit
100%
Ermüdung
0%
Rolle Scout
Gehalt 69.1K p/W
Vertrag 14.03.2028

Leistung

Verhalten Gut
Trainingseffektivität
39%
Spielerentwicklung
30%
Verletzungsprävention
45%
Taktische Umsetzung
55%

Letzte Ereignisse

Vertragsverhandlung begonnen jetzt
Vertragsverhandlung begonnen 7T her
Spieler begutachtet 7T her
Vertragsverhandlung begonnen 7T her
Vertragsverhandlung begonnen 7T her
Vertragsverhandlung begonnen 7T her
Vertragsverhandlung begonnen 7T her
Spieler begutachtet 7T her

Aktuell beobachtet

166
Spieler Verein Status Fähigkeit Vertrauen Beobachtet Zuletzt beobachtet Letzte Stimme
Patrick Asante WAFA Aktiv 98 / 97 40% 1 21.02.2028 -
Kristian Mba Metalist Aktiv 108 / 99 40% 1 21.02.2028 -
Nazar Voloshyn Livyi Bereh Aktiv 96 / 104 40% 1 20.02.2028 -
Fortune Bassey Djoliba Aktiv 106 / 93 40% 1 20.02.2028 -
Ardit Tahiri Kolos Aktiv 99 / 113 40% 1 16.02.2028 -
Luke Daniels University of Pretoria Aktiv 85 / 101 40% 1 16.02.2028 -
Jaze Kabia Grimsby Town Aktiv 101 / 103 40% 2 15.02.2028 -
Sibusiso Tshabalala Polokwane City Aktiv 88 / 108 40% 1 15.02.2028 -
Danylo Kravchuk LNZ Aktiv 98 / 113 40% 3 10.02.2028 -
Enzo Cabrera Danubio Aktiv 100 / 111 40% 6 10.02.2028 -
Vladyslav Savitskiy Victoriia Sumy Abgelehnt 89 / 80 62% 1 07.02.2028 Ablehnen
Agustín Paz Progreso Aktiv 120 / 131 40% 4 06.02.2028 -
Emiliano Mozzone Deportivo Maldonado Aktiv 105 / 92 40% 1 06.02.2028 -
Ihor Horbach Zorya Aktiv 105 / 110 40% 1 05.02.2028 -
Pablo López Tacuarembo Aktiv 95 / 114 40% 1 30.01.2028 -
Bohdan Mohylnyi Inhulets Aktiv 94 / 82 40% 1 30.01.2028 -
Emiliano Saliadarre Miramar Misiones Aktiv 111 / 111 40% 3 27.01.2028 -
Bautista Tomatis Racing Aktiv 116 / 95 40% 3 25.01.2028 -
Nahuel Soria Oriental Aktiv 107 / 121 40% 2 25.01.2028 -
Irakli Kvilitaia Tskhinvali Aktiv 122 / 89 40% 2 22.01.2028 -
Sebastián de Marco Fenix Aktiv 98 / 113 40% 1 22.01.2028 -
Agustín Gallo Tristán Suárez Aktiv 117 / 107 40% 3 21.01.2028 -
Ivo Costantino Rentistas Aktiv 117 / 92 40% 6 20.01.2028 -
Santiago Sala Güemes Aktiv 111 / 109 40% 4 18.01.2028 -
Elías Ayala Madryn Aktiv 103 / 103 40% 2 18.01.2028 -
Victor Mbaoma Tusker Aktiv 114 / 85 40% 7 16.01.2028 -
José Sequera Deportivo Tachira Aktiv 82 / 108 40% 2 14.01.2028 -
Luciano Inverso Rentistas Aktiv 102 / 99 40% 4 11.01.2028 -
Gianluca Pugliese Güemes Aktiv 102 / 118 40% 5 11.01.2028 -
Juan Mendoza Güemes Aktiv 105 / 122 40% 3 09.01.2028 -
Jefry Zapata Danubio Aktiv 112 / 133 40% 1 09.01.2028 -
Richard Celis Zamora Aktiv 101 / 93 40% 2 08.01.2028 -
Luca Franco Arsenal Aktiv 104 / 109 40% 3 07.01.2028 -
Federico Martínez Liverpool Montevideo Aktiv 119 / 128 40% 5 05.01.2028 -
Facundo Milán Central Espanol Aktiv 100 / 106 40% 2 02.01.2028 -
Richard Figueroa Deportivo Lara Aktiv 103 / 101 40% 1 02.01.2028 -
Cristian Barros Cerro Aktiv 105 / 115 40% 2 01.01.2028 -
Gustavo Viera Cerro Largo Aktiv 113 / 105 40% 2 31.12.2027 -
Okardi Inikurogha Bayelsa United Aktiv 79 / 107 40% 2 29.12.2027 -
Mykola Haiduchyk Polissia Aktiv 120 / 125 40% 1 29.12.2027 -
Facundo de León Progreso Aktiv 115 / 124 40% 2 27.12.2027 -
Timothy Zechariah Rivers United Aktiv 96 / 106 40% 6 26.12.2027 -
Chineme Chinonso Ikorodu City Aktiv 85 / 95 40% 7 26.12.2027 -
Eugenio Olivera Talleres Aktiv 87 / 92 40% 1 25.12.2027 -
Josephat Lopaga Kakamega Homeboyz Aktiv 97 / 88 40% 2 24.12.2027 -
Sebastián Cocimano Nueva Chicago Aktiv 126 / 116 40% 7 23.12.2027 -
Maclyn Biokpo Jenewari Rivers United Aktiv 98 / 101 40% 6 20.12.2027 -
Adalberto Peñaranda Deportivo Tachira Aktiv 132 / 115 40% 3 18.12.2027 -
Augusto Berrondo Tristán Suárez Aktiv 101 / 94 40% 3 16.12.2027 -
Auwalu Ali Malam Kano Pillars Aktiv 97 / 104 40% 4 15.12.2027 -
Javier Martínez Almirante Brown Aktiv 114 / 120 40% 3 14.12.2027 -
Joaquín Zeballos Wanderers Aktiv 96 / 93 40% 6 13.12.2027 -
Matías Samaniego Talleres Aktiv 92 / 85 40% 2 11.12.2027 -
Kevin Méndez Dinamo Tbilisi Aktiv 117 / 101 40% 4 09.12.2027 -
Alan Bonansea Colón Aktiv 103 / 127 40% 2 08.12.2027 -
Nicolás Heiz Maipú Aktiv 114 / 89 40% 4 04.12.2027 -
Adama Traoré Bidco United Aktiv 81 / 92 40% 4 03.12.2027 -
Lucas Carrizo Plaza Colonia Aktiv 105 / 124 40% 3 01.12.2027 -
Samson Olasupo Remo Stars Aktiv 82 / 89 40% 2 28.11.2027 -
Saba Kvaratskhelia Tskhinvali Aktiv 81 / 96 40% 1 28.11.2027 -
Lucas Pedraza Defensores Unidos Aktiv 88 / 111 40% 1 12.11.2027 -
Jonathan Cañete Portuguesa Aktiv 127 / 109 40% 4 10.11.2027 -
Ismail Sarki Niger Tornadoes Aktiv 113 / 95 40% 2 09.11.2027 -
Santiago Apa All Boys Aktiv 102 / 105 40% 4 08.11.2027 -
Esteban da Silva Racing Aktiv 101 / 104 40% 1 04.11.2027 -
Marco Bustillo Zamora Aktiv 100 / 95 40% 2 28.10.2027 -
Juan Rocca Gimnasia y Tiro Aktiv 123 / 96 40% 6 25.10.2027 -
Sunday Megwo Abia Warriors Aktiv 97 / 112 40% 1 23.10.2027 -
Chinedu Onyinjekwu Bayelsa United Aktiv 82 / 79 40% 2 16.10.2027 -
Maren Kefas Plateau United Aktiv 87 / 94 40% 1 07.10.2027 -
Abel Argañaraz Gimnasia y Esgrima Aktiv 92 / 119 40% 1 04.10.2027 -
Junior Paredes Trujillanos Aktiv 118 / 108 40% 1 03.10.2027 -
Misael Sosa Godoy Cruz Aktiv 101 / 125 40% 4 01.10.2027 -
Samuel Anakwe Remo Stars Aktiv 83 / 98 40% 1 16.09.2027 -
Shuaibu Ibrahim Wikki Tourists Aktiv 94 / 81 40% 2 11.09.2027 -
Marco Miori Alvarado Aktiv 96 / 114 40% 1 03.09.2027 -
Agustín Occhiato Katsina United Aktiv 78 / 80 40% 1 01.09.2027 -
Joseph Atule Barau Aktiv 102 / 88 40% 1 28.08.2027 -
Oto John ES Mostaganem Aktiv 103 / 124 40% 2 26.08.2027 -
Andrii Bobynets Prykarpattia Aktiv 99 / 102 30% 1 / 1m 25.08.2027 -
Chukwuemeka Obioma Abia Warriors Aktiv 82 / 109 40% 1 16.08.2027 -
Bismark Asante Ashanti Gold Aktiv 103 / 93 40% 1 14.08.2027 -
Miloš Bočić Altamura Aktiv 109 / 100 40% 2 10.08.2027 -
Antonio Cioffi Latina Aktiv 118 / 121 40% 1 10.08.2027 -
Alejo Cruz Juventud Aktiv 133 / 125 40% 1 06.08.2027 -
Eljon Toci Dolomiti Bellunesi Aktiv 101 / 96 40% 1 03.08.2027 -
George Lloyd Shrewsbury Town Aktiv 97 / 105 40% 1 02.08.2027 -
Samuel Tetteh Ashanti Gold Aktiv 101 / 96 40% 1 01.08.2027 -
Dean Erasmus Platinum Stars Aktiv 92 / 106 40% 1 28.07.2027 -
Nicola Dalmonte Trento Aktiv 93 / 104 40% 1 27.07.2027 -
Harry McKirdy Barrow AFC Aktiv 89 / 100 40% 1 26.07.2027 -
Mees Rijks Bristol Rovers Aktiv 125 / 100 40% 5 12.06.2027 -
Job Ochieng Real Sociedad Aktiv 97 / 122 40% 1 12.06.2027 -
Alassana Jatta Notts County Aktiv 102 / 110 40% 1 10.06.2027 -
Bojan Radulović Huddersfield Town Aktiv 116 / 124 40% 4 09.06.2027 -
Tyreece Campbell Charlton Athletic Aktiv 105 / 125 40% 4 08.06.2027 -
Harry Leonard Peterborough United Aktiv 99 / 98 40% 3 07.06.2027 -
Callum Stead Barnet Aktiv 80 / 112 40% 1 07.06.2027 -
Jayden Wareham Barnet Aktiv 88 / 96 40% 3 05.06.2027 -
Emanuele Schimmenti Potenza Aktiv 120 / 114 40% 1 05.06.2027 -
Ihor Krasnopir Polissia Aktiv 122 / 132 40% 6 30.05.2027 -
Camillo Tavernelli Arezzo Aktiv 111 / 131 40% 2 30.05.2027 -
Aaron Drinan Swindon Town Aktiv 104 / 104 40% 3 29.05.2027 -
Niall Ennis Blackpool Aktiv 106 / 113 40% 3 29.05.2027 -
Dany Mota Monza Aktiv 126 / 112 40% 3 29.05.2027 -
Josh Koroma Leyton Orient Aktiv 97 / 115 40% 3 27.05.2027 -
Shilow Tracey Crawley Town Aktiv 98 / 107 40% 1 27.05.2027 -
Lorent Tolaj Plymouth Argyle Aktiv 129 / 123 40% 4 25.05.2027 -
Marcus Browne AFC Wimbledon Aktiv 100 / 123 40% 4 24.05.2027 -
Robert Mizo Ashanti Gold Aktiv 119 / 103 40% 2 24.05.2027 -
Simone Mazzocchi Cosenza Aktiv 119 / 105 40% 1 24.05.2027 -
Fabrizio Cavegn Bristol Rovers Aktiv 126 / 128 40% 1 21.05.2027 -
Dom Ballard Leyton Orient Aktiv 118 / 133 40% 1 21.05.2027 -
Giuseppe Di Serio Spezia Aktiv 112 / 121 40% 1 20.05.2027 -
Bradley Fink Wycombe Wanderers Aktiv 92 / 115 40% 4 19.05.2027 -
Lewis Morgan SuperSport United Aktiv 141 / 111 40% 3 16.05.2027 -
Lee Bonis Chesterfield Aktiv 87 / 92 40% 2 16.05.2027 -
Louis Appéré Cambridge United Aktiv 100 / 105 40% 2 14.05.2027 -
Aaron Collins Milton Keynes Dons Aktiv 118 / 135 40% 2 14.05.2027 -
Stephen Humphrys Bradford City Aktiv 115 / 111 40% 1 14.05.2027 -
Christian Saydee Wigan Athletic Aktiv 112 / 106 40% 1 09.05.2027 -
Moussa Dembélé CR Belouizdad Aktiv 149 / 147 40% 1 09.05.2027 -
Bernat Guiu Virtus Entella Aktiv 110 / 114 40% 1 06.05.2027 -
Lamine Guèye Barrow AFC Aktiv 128 / 130 40% 1 06.05.2027 -
Marco Tumminello Benevento Aktiv 125 / 90 40% 1 03.05.2027 -
John Yeboah Venezia Aktiv 106 / 109 40% 2 02.05.2027 -
Malik Mothersille Stockport County Aktiv 98 / 94 40% 3 01.05.2027 -
Danyil Alefirenko Chornomorets Aktiv 120 / 92 40% 3 23.04.2027 -
Papa Ndiaga Yade Oleksandriya Aktiv 115 / 98 40% 1 21.04.2027 -
Yurii Klymchuk Kolos Aktiv 116 / 108 40% 2 20.04.2027 -
Will Evans Mansfield Town Aktiv 95 / 98 40% 1 14.04.2027 -
Maksym Kulish Probiy Aktiv 70 / 87 58% 1 08.02.2027 -
Yurii Mykhayliv Nyva Abgelehnt 68 / 95 58% 1 25.01.2027 Ablehnen
Tedi Cara LNZ Aktiv 114 / 127 40% 2 24.01.2027 -
Patrick Maswanganyi Orlando Pirates Aktiv 110 / 136 40% 1 09.01.2027 -
Siyanda Ndlovu Bloemfontein Celtic Aktiv 116 / 107 40% 1 25.12.2026 -
Serhiy Buletsa Oleksandriya Aktiv 113 / 114 40% 1 23.12.2026 -
Kermit Billiat Ajax Cape Town Aktiv 116 / 124 40% 1 23.12.2026 -
Velemseni Ndwandwe Golden Arrows Aktiv 102 / 120 40% 2 20.12.2026 -
Bohdan Boichuk Khazar Aktiv 102 / 125 40% 1 20.12.2026 -
Ante Roguljić Diosgyor Aktiv 123 / 132 40% 1 11.12.2026 -
Maksym Tretiakov Obolon Aktiv 100 / 104 40% 1 11.12.2026 -
Maksym Luniov Chornomorets Aktiv 100 / 98 40% 1 10.12.2026 -
Xeber Alkain Karpaty Aktiv 121 / 113 40% 1 07.12.2026 -
Bongani Modiba Black Aces Aktiv 131 / 117 40% 2 21.11.2026 -
Marcelo Allende Mamelodi Sundowns Aktiv 115 / 143 40% 2 14.11.2026 -
Tshepang Moremi Orlando Pirates Aktiv 115 / 104 40% 2 14.11.2026 -
Nduduzo Sibiya Golden Arrows Aktiv 107 / 121 40% 1 05.11.2026 -
Fredrik Bjørkan Bodo/Glimt Aktiv 129 / 133 40% 1 04.11.2026 -
Ammar Ramadan DAC Dunajska Streda Aktiv 129 / 132 40% 1 02.11.2026 -
Muharrem Jashari LNZ Aktiv 122 / 109 40% 1 02.11.2026 -
Oleksandr Drambaiev LNZ Aktiv 109 / 127 40% 2 01.11.2026 -
Jordan Lotomba Bloemfontein Celtic Aktiv 123 / 110 40% 1 30.10.2026 -
Dmytro Kryskiv Shakhtar Aktiv 133 / 139 40% 1 24.10.2026 -
Artem Slesar Zorya Aktiv 106 / 125 40% 1 20.10.2026 -
Oleksii Hutsuliak Polissia Aktiv 137 / 111 40% 1 18.10.2026 -
Ivan Kaliuzhnyi Metalist Aktiv 110 / 114 40% 1 15.10.2026 -
Fawaaz Basadien Mamelodi Sundowns Aktiv 125 / 135 40% 1 13.10.2026 -
Iván Calero Karpaty Aktiv 124 / 134 40% 1 12.10.2026 -
Ole-Didrik Blomberg Bodo/Glimt Aktiv 128 / 122 40% 1 08.10.2026 -
Conrad Wallem Austria Wien Aktiv 135 / 144 40% 1 08.10.2026 -
Andrii Novikov Chernihiv Aktiv 85 / 85 30% 1 / 1m 26.08.2026 -
Dmytro Makotiak Prykarpattia Aktiv 64 / 69 42% 1 / 1m 26.08.2026 -
Richie Laryea Toronto FC Aktiv 125 / 103 40% 1 03.08.2026 -
Romain Del Castillo Osasuna Aktiv 137 / 116 40% 1 01.08.2026 -
Ozziel Herrera Tigres Aktiv 130 / 139 40% 1 01.08.2026 -